Omaha Offutt, NE

10:34 AM CST on January 19, 2018 (GMT -0600)
Offutt Air Force Base

Weather History for KOFF - July, 2013

Change the Weather History Date:

Monday, July 8, 2013

  Actual Average Record
Temperature  
Mean Temperature 82 °F -  
Max Temperature 90 °F 83 °F 98 °F (2002)
Min Temperature 77 °F 65 °F 51 °F (2015)
Cooling Degree Days 18    
Growing Degree Days 32 (Base 50)    
Moisture  
Dew Point 70 °F    
Average Humidity 70    
Maximum Humidity 83    
Minimum Humidity 57    
Precipitation  
Precipitation 0.00 in - - ()
Sea Level Pressure  
Sea Level Pressure 29.93 in    
Wind  
Wind Speed 5 mph (SSE)    
Max Wind Speed 9 mph    
Max Gust Speed -    
Visibility 8 miles    
Events Rain    
Averages and records for this station are not official NWS values.
T = Trace of Precipitation, MM = Missing Value Source: NWS Daily Summary

Daily Weather History Graph

Daily Weather History Graph

Search for Another Location

Airport or City:

Trip Planner

Search our weather history database for the weather conditions in past years. The results will help you decide how hot, cold, wet, or windy it might be!

Date:

Astronomy

Jul. 08, 2013 Rise Set
Actual Time 5:59 AM CDT 8:58 PM CDT
Civil Twilight 5:25 AM CDT 9:31 PM CDT
Nautical Twilight 4:43 AM CDT 10:13 PM CDT
Astronomical Twilight 3:54 AM CDT 11:02 PM CDT
Moon 6:30 AM CDT (7/8) 9:00 PM CDT (7/8)
Length of Visible Light 16h 05m
Length of Day
14h 58m
New Moon, 0% of the Moon is Illuminated
Jul 8
New Moon
Jul 15
First Quarter
Jul 22
Full
Jul 29
Last Quarter
Aug 6
New

Hourly Weather History & Observations

Time (CDT) Temp. Heat Index Dew Point Humidity Pressure Visibility Wind Dir Wind Speed Gust Speed Precip Events Conditions
12:56 AM 77.0 °F - 71.6 °F 83% 29.92 in 10.0 mi Calm Calm - N/A   Mostly Cloudy
1:56 AM 77.0 °F - 71.6 °F 83% 29.93 in 10.0 mi NW 3.5 mph - N/A   Clear
2:56 AM 77.0 °F - 71.6 °F 83% 29.91 in 10.0 mi SSE 5.8 mph - N/A   Clear
3:56 AM 77.0 °F - 69.8 °F 78% 29.91 in 10.0 mi SSE 8.1 mph - N/A   Scattered Clouds
4:29 AM 78.8 °F - 66.2 °F 65% 29.91 in 2.5 mi South 5.8 mph - N/A   Haze
4:32 AM 78.8 °F - 66.2 °F 65% 29.91 in 2.0 mi South 6.9 mph - N/A   Haze
4:33 AM 78.8 °F - 66.2 °F 65% 29.91 in 1.8 mi South 6.9 mph - N/A   Haze
4:35 AM 78.8 °F - 66.2 °F 65% 29.91 in 2.0 mi South 6.9 mph - N/A   Haze
4:40 AM 78.8 °F - 66.2 °F 65% 29.91 in 2.5 mi SSW 6.9 mph - N/A   Haze
4:41 AM 78.8 °F - 66.2 °F 65% 29.91 in 2.5 mi SSW 6.9 mph - N/A   Haze
4:42 AM 78.8 °F - 66.2 °F 65% 29.92 in 3.0 mi SSW 6.9 mph - N/A   Haze
4:56 AM 78.8 °F - 66.2 °F 65% 29.92 in 10.0 mi SW 4.6 mph - N/A   Scattered Clouds
5:56 AM 78.8 °F - 66.2 °F 65% 29.93 in 10.0 mi West 3.5 mph - N/A   Scattered Clouds
6:56 AM 77.0 °F - 68.0 °F 74% 29.94 in 10.0 mi NW 2.3 mph - N/A   Scattered Clouds
7:14 AM 77.0 °F - 68.0 °F 74% 29.94 in 10.0 mi Calm Calm - N/A   Clear
7:32 AM 77.0 °F - 69.8 °F 78% 29.95 in 10.0 mi Variable 2.3 mph - N/A   Clear
7:56 AM 82.4 °F 85.4 °F 68.0 °F 62% 29.95 in 10.0 mi SW 2.3 mph - N/A   Clear
8:56 AM 82.4 °F 85.4 °F 68.0 °F 62% 29.96 in 10.0 mi West 4.6 mph - N/A   Partly Cloudy
9:56 AM 82.4 °F 85.4 °F 68.0 °F 62% 29.97 in 10.0 mi Variable 2.3 mph - N/A   Scattered Clouds
10:56 AM 82.4 °F 85.4 °F 68.0 °F 62% 29.97 in 10.0 mi SW 4.6 mph - N/A   Mostly Cloudy
11:56 AM 84.2 °F 88.4 °F 69.8 °F 62% 29.98 in 10.0 mi South 4.6 mph - N/A   Scattered Clouds
12:58 PM 84.9 °F 90.1 °F 70.9 °F 63% 29.98 in 10.0 mi South 6.9 mph - N/A   Scattered Clouds
1:58 PM 88.2 °F 94.6 °F 71.8 °F 58% 29.97 in 10.0 mi SSE 8.1 mph - N/A   Clear
2:58 PM 88.7 °F 95.2 °F 71.8 °F 57% 29.96 in 10.0 mi South 8.1 mph - N/A   Scattered Clouds
3:58 PM 86.9 °F 93.3 °F 72.1 °F 61% 29.96 in 10.0 mi SSE 9.2 mph - N/A   Clear
4:58 PM 84.9 °F 90.1 °F 71.2 °F 63% 29.96 in 10.0 mi South 6.9 mph - N/A   Partly Cloudy
5:58 PM 85.3 °F 91.5 °F 72.3 °F 65% 29.95 in 10.0 mi ESE 9.2 mph - N/A   Partly Cloudy
6:58 PM 83.8 °F 91.4 °F 74.8 °F 74% 29.95 in 10.0 mi ESE 4.6 mph - N/A   Partly Cloudy
7:37 PM 84.2 °F 92.3 °F 75.2 °F 74% 29.93 in 10.0 mi ESE 6.9 mph - N/A   Light Drizzle
7:58 PM 82.8 °F 90.7 °F 75.9 °F 80% 29.92 in 10.0 mi ENE 5.8 mph - 0.00 in   Light Drizzle
7:59 PM 82.4 °F 89.5 °F 75.2 °F 79% 29.92 in 10.0 mi NE 5.8 mph - N/A   Mostly Cloudy
8:05 PM 82.4 °F 89.5 °F 75.2 °F 79% 29.92 in 10.0 mi ENE 5.8 mph - N/A Rain Light Rain
8:16 PM 82.4 °F 89.5 °F 75.2 °F 79% 29.92 in 10.0 mi East 6.9 mph - N/A   Scattered Clouds
8:58 PM 82.4 °F 89.0 °F 74.5 °F 77% 29.91 in 10.0 mi SE 8.1 mph - 0.00 in   Scattered Clouds
9:58 PM 81.3 °F 86.8 °F 73.9 °F 78% 29.94 in 10.0 mi East 5.8 mph - N/A   Mostly Cloudy
10:58 PM 79.9 °F - 73.4 °F 80% 29.92 in 10.0 mi East 5.8 mph - N/A   Clear
11:58 PM 79.0 °F - 72.9 °F 81% 29.92 in 10.0 mi ESE 9.2 mph - N/A   Clear